Weather History for Sexton Summit, OR

Change the Weather History Date:

Sunday, December 16, 2012

  Actual Average Record
Temperature  
Mean Temperature 34 °F -  
Max Temperature 39 °F 38 °F 60 °F (1998)
Min Temperature 30 °F 30 °F 18 °F (2008)
Degree Days  
Heating Degree Days 30    
Moisture  
Dew Point 34 °F    
Average Humidity 99    
Maximum Humidity 100    
Minimum Humidity 93    
Precipitation  
Precipitation 0.67 in - - ()
Sea Level Pressure  
Sea Level Pressure 29.66 in    
Wind  
Wind Speed 10 mph (SSW)    
Max Wind Speed 25 mph    
Max Gust Speed 45 mph    
Visibility 2 miles    
Events Fog , Rain , Snow    
Averages and records for this station are not official NWS values.
T = Trace of Precipitation, MM = Missing Value Source: NWS Daily Summary

Daily Weather History Graph

Daily Weather History Graph

Search for Another Location

Airport:

Trip Planner

Search our weather history database for the weather conditions in past years. The results will help you decide how hot, cold, wet, or windy it might be!

Date:

Astronomy

Dec. 16, 2012 Rise Set
Actual Time 7:37 AM PST 4:41 PM PST
Civil Twilight 7:05 AM PST 5:13 PM PST
Nautical Twilight 6:29 AM PST 5:49 PM PST
Astronomical Twilight 5:55 AM PST 6:23 PM PST
Moon 10:10 AM PST (12/16) 9:06 PM PST (12/16)
Length of Visible Light 10h 08m
Length of Day
9h 03m
Waxing Crescent, 17% of the Moon is Illuminated
Dec 16
Waxing Crescent
Dec 19
First Quarter
Dec 28
Full
Jan 4
Last Quarter
Jan 11
New

Hourly Weather History & Observations

Time (PST) Temp. Windchill Dew Point Humidity Pressure Visibility Wind Dir Wind Speed Gust Speed Precip Events Conditions
12:56 AM 32.0 °F 28.7 °F 30.9 °F 96% 29.91 in 0.5 mi WNW 3.5 mph - 0.01 in Fog Fog
1:56 AM 30.9 °F 27.5 °F 30.9 °F 100% 29.91 in 0.5 mi Variable 3.5 mph - 0.01 in Fog Light Freezing Fog
2:56 AM 32.0 °F 28.7 °F 30.9 °F 96% 29.92 in 0.5 mi Variable 3.5 mph - 0.00 in Fog Fog
3:26 AM 32.0 °F 28.7 °F 30.2 °F 93% 29.83 in 0.2 mi Variable 3.5 mph - 0.00 in Fog , Snow Light Snow
3:56 AM 30.9 °F - 30.9 °F 100% 29.90 in 0.2 mi Calm Calm - 0.00 in Fog , Snow Light Snow
4:04 AM 30.2 °F 26.7 °F 30.2 °F 100% 29.83 in 0.5 mi Variable 3.5 mph - 0.00 in Fog , Snow Snow
4:11 AM 30.2 °F - 30.2 °F 100% 29.82 in 0.2 mi Calm Calm - 0.02 in Fog , Snow Snow
4:38 AM 30.2 °F 23.4 °F 30.2 °F 100% 29.82 in 0.8 mi Variable 6.9 mph - 0.04 in Snow Light Snow
4:56 AM 30.9 °F 24.3 °F 30.0 °F 96% 29.89 in 0.5 mi SW 6.9 mph - 0.05 in Fog , Snow Snow
5:12 AM 30.2 °F 21.9 °F 30.2 °F 100% 29.82 in 0.5 mi SW 9.2 mph - 0.00 in Fog , Snow Light Snow
5:26 AM 30.2 °F 23.4 °F 30.2 °F 100% 29.83 in 0.5 mi WSW 6.9 mph - 0.00 in Fog , Snow Light Snow
5:56 AM 30.9 °F - 30.0 °F 96% 29.90 in 0.5 mi Calm Calm - 0.00 in Fog , Snow Light Snow
6:13 AM 30.2 °F 21.9 °F 30.2 °F 100% 29.82 in 0.2 mi SW 9.2 mph - 0.01 in Fog , Snow Light Snow
6:56 AM 30.9 °F 24.3 °F 30.0 °F 96% 29.89 in 0.2 mi SSW 6.9 mph - 0.01 in Fog , Snow Light Snow
7:38 AM 30.2 °F 20.8 °F 30.2 °F 100% 29.81 in 0.2 mi South 11.5 mph - 0.00 in Fog , Rain Light Freezing Rain
7:52 AM 30.2 °F 19.8 °F 30.2 °F 100% 29.80 in 0.2 mi South 13.8 mph 19.6 mph 0.00 in Fog , Snow Light Snow
7:56 AM 30.9 °F 21.2 °F 30.0 °F 96% 29.86 in 0.2 mi South 12.7 mph 19.6 mph 0.00 in Fog , Snow Light Snow
8:56 AM 30.9 °F 20.2 °F 30.0 °F 96% 29.86 in 0.2 mi South 15.0 mph 25.3 mph 0.02 in Fog , Snow Snow
9:56 AM 30.9 °F 19.4 °F 30.0 °F 96% 29.85 in 0.2 mi South 17.3 mph 26.5 mph 0.06 in Fog , Snow Snow
10:56 AM 30.0 °F 18.3 °F 30.0 °F 100% 29.83 in 0.2 mi South 17.3 mph 29.9 mph 0.11 in Fog , Snow Light Snow
11:56 AM 30.9 °F 19.8 °F 30.9 °F 100% 29.79 in 0.2 mi South 16.1 mph 31.1 mph 0.01 in Fog Light Freezing Fog
12:56 PM 32.0 °F 19.2 °F 30.9 °F 96% 29.75 in 0.2 mi South 23.0 mph 33.4 mph 0.00 in Fog Fog
1:56 PM 33.1 °F 21.2 °F 33.1 °F 100% 29.71 in 0.2 mi South 20.7 mph 34.5 mph 0.00 in Fog Fog
2:56 PM 35.1 °F 23.8 °F 34.0 °F 96% 29.67 in 0.2 mi South 20.7 mph 34.5 mph 0.00 in Fog , Rain Rain
3:56 PM 36.0 °F 23.9 °F 35.1 °F 97% 29.61 in 0.2 mi SSW 25.3 mph 44.9 mph N/A Fog , Rain Light Rain
4:56 PM 37.0 °F 25.6 °F 36.0 °F 96% 29.57 in 0.2 mi South 24.2 mph 42.6 mph 0.02 in Fog , Rain Light Rain
5:56 PM 37.9 °F 27.3 °F 37.9 °F 100% 29.54 in 0.2 mi South 21.9 mph 40.3 mph 0.03 in Fog , Rain Rain
6:56 PM 39.0 °F 28.0 °F 39.0 °F 100% 29.48 in 0.2 mi South 25.3 mph 39.1 mph 0.06 in Fog , Rain Light Rain
7:56 PM 39.9 °F 30.0 °F 39.9 °F 100% 29.47 in 0.2 mi South 21.9 mph 35.7 mph 0.08 in Fog , Rain Light Rain
8:56 PM 39.9 °F 30.5 °F 39.9 °F 100% 29.47 in 0.2 mi SSW 19.6 mph 34.5 mph 0.11 in Fog , Rain Rain
9:32 PM 39.2 °F 32.0 °F 39.2 °F 100% 29.48 in 0.5 mi WSW 11.5 mph 27.6 mph 0.05 in Fog , Rain Light Rain
9:40 PM 39.2 °F 30.8 °F 39.2 °F 100% 29.47 in 1.5 mi WSW 15.0 mph 27.6 mph 0.05 in Rain Light Rain
9:44 PM 39.2 °F 31.6 °F 39.2 °F 100% 29.47 in 4.0 mi WSW 12.7 mph 33.4 mph 0.05 in Rain Light Rain
9:56 PM 39.0 °F 32.8 °F 39.0 °F 100% 29.52 in 1.8 mi SSW 9.2 mph 31.1 mph 0.05 in Rain Light Rain
10:01 PM 39.2 °F 32.0 °F 37.4 °F 93% 29.45 in 1.2 mi WSW 11.5 mph 31.1 mph 0.00 in Rain Light Rain
10:06 PM 37.4 °F 30.3 °F 37.4 °F 100% 29.46 in 2.0 mi SW 10.4 mph 33.4 mph 0.01 in Rain Light Rain
10:14 PM 37.4 °F 28.5 °F 37.4 °F 100% 29.46 in 6.0 mi WSW 15.0 mph 32.2 mph 0.01 in Rain Light Rain
10:27 PM 37.4 °F 29.8 °F 37.4 °F 100% 29.48 in - WSW 11.5 mph 29.9 mph 0.01 in Rain Light Rain
10:35 PM 37.4 °F 29.8 °F 37.4 °F 100% 29.49 in 1.5 mi WSW 11.5 mph 32.2 mph 0.01 in Rain Light Rain
10:42 PM 37.4 °F 28.9 °F 35.6 °F 93% 29.48 in 1.0 mi SW 13.8 mph 36.8 mph 0.01 in Rain Light Rain
10:48 PM 35.6 °F 28.0 °F 35.6 °F 100% 29.49 in 2.5 mi SSW 10.4 mph 36.8 mph 0.02 in Rain Light Rain
10:52 PM 35.6 °F 28.6 °F 35.6 °F 100% 29.49 in 6.0 mi SSW 9.2 mph 35.7 mph 0.02 in Rain Light Rain
10:56 PM 36.0 °F 28.0 °F 35.1 °F 97% 29.55 in 7.0 mi South 11.5 mph 29.9 mph 0.02 in Rain Light Rain
11:02 PM 35.6 °F 25.9 °F 35.6 °F 100% 29.50 in 8.0 mi SSW 16.1 mph 40.3 mph N/A   Overcast
11:11 PM 35.6 °F 25.5 °F 35.6 °F 100% 29.50 in 9.0 mi WSW 17.3 mph 40.3 mph 0.00 in Rain Light Rain
11:20 PM 35.6 °F 26.2 °F 35.6 °F 100% 29.52 in 2.5 mi WSW 15.0 mph 39.1 mph 0.00 in Rain Rain
11:28 PM 35.6 °F 25.5 °F 35.6 °F 100% 29.51 in 1.5 mi WSW 17.3 mph 36.8 mph 0.02 in Rain Light Rain
11:35 PM 35.6 °F 27.1 °F 35.6 °F 100% 29.53 in 2.5 mi SW 12.7 mph 29.9 mph 0.02 in Rain Light Rain
11:43 PM 35.6 °F 27.5 °F 35.6 °F 100% 29.52 in 6.0 mi WSW 11.5 mph 38.0 mph 0.02 in Rain Light Rain
11:52 PM 35.6 °F 26.2 °F 35.6 °F 100% 29.52 in 8.0 mi SW 15.0 mph 33.4 mph 0.02 in Rain Light Rain
11:56 PM 35.1 °F 26.4 °F 35.1 °F 100% 29.56 in 7.0 mi SW 12.7 mph 33.4 mph 0.02 in Rain Light Rain